EW8735 Weather Reports


Display with metric or nautical units.
time (UTC)temp
F
wind
direction
speed
MPH
gust
MPH
rain 1hr
in
rain 24hr
in
rain mn
in
humidity
%
barometer
mb
20260506034518 61 16 0.0 0.0 0.00 0.00 0.00 68 1007.4
20260506033021 64 16 0.0 0.0 0.00 0.00 0.00 65 1007.2
20260506031517 67 16 0.0 0.0 0.00 0.00 0.00 60 1007.1
20260506030019 72 16 0.0 0.0 0.00 0.00 0.00 51 1007.1
20260506024526 73 16 0.0 0.0 0.00 0.00 0.00 47 1007.0
20260506023016 74 16 0.0 0.0 0.00 0.00 0.00 46 1007.0
20260506021528 74 16 0.0 0.0 0.00 0.00 0.00 44 1006.9
20260506020017 75 18 0.0 0.0 0.00 0.00 0.00 44 1006.7
20260506014522 76 18 0.0 0.0 0.00 0.00 0.00 41 1006.8
20260506013015 76 15 0.0 0.0 0.00 0.00 0.00 40 1006.8
20260506011522 77 15 0.0 0.0 0.00 0.00 0.00 38 1006.7
20260506010015 77 327 0.0 0.0 0.00 0.00 0.00 37 1006.5
20260506004513 78 324 0.0 0.0 0.00 0.00 0.00 35 1006.7
20260506003012 77 324 0.0 0.0 0.00 0.00 0.00 35 1006.6
20260506001514 78 37 0.0 0.0 0.00 0.00 0.00 35 1006.6
20260506000012 78 37 0.0 0.0 0.00 0.00 0.00 36 1006.7
20260505234513 79 38 0.0 0.0 0.00 0.00 0.00 34 1006.8
20260505233011 80 37 0.0 0.0 0.00 0.00 0.00 33 1006.8
20260505231515 80 38 0.0 0.0 0.00 0.00 0.00 33 1006.9
20260505230010 80 37 0.0 0.0 0.00 0.00 0.00 34 1007.0
20260505224519 80 37 0.0 0.0 0.00 0.00 0.00 34 1007.1
20260505223012 81 38 0.0 0.0 0.00 0.00 0.00 35 1007.1
20260505221507 80 37 0.0 0.0 0.00 0.00 0.00 33 1007.2
20260505220006 80 37 0.0 0.0 0.00 0.00 0.00 36 1007.3
20260505214505 80 37 0.0 0.0 0.00 0.00 0.00 35 1007.4
20260505213004 80 65 0.0 0.0 0.00 0.00 0.00 37 1007.5
20260505211634 79 64 0.0 0.0 0.00 0.00 0.00 39 1007.6
20260505210100 79 66 0.0 0.0 0.00 0.00 0.00 37 1007.6
20260505204559 78 66 0.0 0.0 0.00 0.00 0.00 40 1007.8
20260505203119 77 66 0.0 0.0 0.00 0.00 0.00 44 1007.8
20260505201552 75 66 0.0 0.0 0.00 0.00 0.00 45 1007.9
20260505200052 74 66 0.0 0.0 0.00 0.00 0.00 47 1008.0
20260505194552 76 69 0.0 0.0 0.00 0.00 0.00 42 1008.0
20260505193049 76 58 0.0 0.0 0.00 0.00 0.00 46 1008.1
20260505191551 74 59 0.0 0.0 0.00 0.00 0.00 47 1008.1
20260505190045 74 41 0.0 0.0 0.00 0.00 0.00 47 1008.2
20260505184548 74 41 0.0 0.0 0.00 0.00 0.00 45 1008.3
20260505183045 73 41 0.0 0.0 0.00 0.00 0.00 51 1008.2
20260505181537 73 59 0.0 0.0 0.00 0.00 0.00 51 1008.2
20260505180036 72 62 0.0 0.0 0.00 0.00 0.00 50 1008.1
20260505174534 72 62 0.0 0.0 0.00 0.00 0.00 51 1008.2
20260505173033 71 60 0.0 0.0 0.00 0.00 0.00 52 1008.2
20260505171529 71 57 0.0 0.0 0.00 0.00 0.00 54 1008.2
20260505170035 71 122 0.0 0.0 0.00 0.00 0.00 52 1008.1
20260505164528 71 123 0.0 0.0 0.00 0.00 0.00 51 1008.0
20260505163026 70 123 0.0 0.0 0.00 0.00 0.00 53 1008.0
20260505161517 69 122 0.0 0.0 0.00 0.00 0.00 58 1008.0
20260505153010 66 45 0.0 0.0 0.00 0.00 0.00 61 1007.9
20260505151504 64 46 0.0 0.0 0.00 0.00 0.00 65 1007.8
20260505150104 62 35 0.0 0.0 0.00 0.00 0.00 67 1007.7
20260505124535 53 46 0.0 0.0 0.00 0.00 0.00 78 1006.3
20260505123034 53 47 0.0 0.0 0.00 0.00 0.00 78 1006.2
20260505121535 54 47 0.0 0.0 0.00 0.00 0.00 76 1006.1
20260505120027 55 46 0.0 0.0 0.00 0.00 0.00 74 1005.8
20260505114524 56 46 0.0 0.0 0.00 0.00 0.00 74 1005.7
20260505113033 56 47 0.0 0.0 0.00 0.00 0.00 74 1005.6
20260505101521 57 47 0.0 0.0 0.00 0.00 0.00 73 1005.1
20260505100011 57 47 0.0 0.0 0.00 0.00 0.00 73 1005.0
20260505094508 58 47 0.0 0.0 0.00 0.00 0.00 70 1004.9
20260505093006 58 46 0.0 0.0 0.00 0.00 0.00 69 1004.8
20260505091500 58 45 0.0 0.0 0.00 0.00 0.00 70 1004.8
20260505090101 58 45 0.0 0.0 0.00 0.00 0.00 70 1004.8
20260505084603 57 45 0.0 0.0 0.00 0.00 0.00 69 1004.8
20260505083104 57 45 0.0 0.0 0.00 0.00 0.00 69 1004.7
20260505081548 56 45 0.0 0.0 0.00 0.00 0.00 69 1004.7
20260505080045 56 45 0.0 0.0 0.00 0.00 0.00 69 1004.7
20260505074542 55 45 0.0 0.0 0.00 0.00 0.00 70 1004.7
20260505073041 55 45 0.0 0.0 0.00 0.00 0.00 72 1004.6
20260505071538 54 45 0.0 0.0 0.00 0.00 0.00 74 1004.4
20260505070043 55 45 0.0 0.0 0.00 0.00 0.00 71 1004.3
20260505064534 56 45 0.0 0.0 0.00 0.00 0.00 69 1004.2
20260505063034 57 45 0.0 0.0 0.00 0.00 0.00 69 1003.7
20260505061553 58 45 0.0 0.0 0.00 0.00 0.00 68 1004.0
20260505060035 57 45 0.0 0.0 0.00 0.00 0.00 68 1003.6
20260505054543 57 45 0.0 0.0 0.00 0.00 0.00 68 1003.5
20260505053032 57 45 0.0 0.0 0.00 0.00 0.00 68 1003.4
20260505051532 58 45 0.0 0.0 0.00 0.00 0.00 65 1003.3
20260505041531 63 45 0.0 0.0 0.00 0.00 0.00 55 1003.0
20260505040039 63 45 0.0 0.0 0.00 0.00 0.00 54 1002.8